Regional Weather Roundup
Issued by NWS Newport/Morehead, NC

Current Version | Previous Version | Text Only | Print | Product List | Glossary On
Versions: 1 2 3 4 5 6 7 8 9 10 11 12 13 14 15 16 17 18 19 20 21 22 23 24 25 26 27 28 29 30 31 32 33 34 35 36 37 38 39 40 41 42 43 44 45 46 47 48 49 50
000 ASUS42 KMHX 300122 RWRMHX WEATHER ROUNDUP FOR EASTERN NORTH CAROLINA NATIONAL WEATHER SERVICE NEWPORT/MOREHEAD CITY NC 900 PM EDT FRI AUG 29 2014 NOTE: "FAIR" INDICATES FEW OR NO CLOUDS BELOW 12,000 FEET WITH NO SIGNIFICANT WEATHER AND/OR OBSTRUCTIONS TO VISIBILITY NCZ015>017-031-032-045>047-102-103-300200- NORTH COAST CITY SKY/WX TMP DP RH WIND PRES REMARKS EDENTON CLOUDY 74 67 79 E5 30.18R ELIZABETH CITY CLOUDY 74 66 76 E7 30.17R KITTY HAWK CLOUDY 75 65 71 E8 30.16R MANTEO CLOUDY 75 65 72 E12G20 30.17R $$ NCZ045>047-081-094-103-104-300200- CENTRAL COAST CITY SKY/WX TMP DP RH WIND PRES REMARKS FRISCO CLEAR 76 74 93 E8 30.14R SWANQUARTER N/A 73 N/A N/A NE5 30.12R $$ NCZ095-097-098-100-101-300200- SOUTHERN COAST CITY SKY/WX TMP DP RH WIND PRES REMARKS BEAUFORT CLEAR 78 74 87 NE3 30.14R CEDAR ISLAND N/A 79 N/A N/A SE2 30.18S JACKSONVILLE CLEAR 80 69 69 E6 30.13R NEWPORT NOT AVBL PINEY ISLAND PTCLDY 81 78 91 NE7 30.13R WILMINGTON CLEAR 79 72 79 S5 30.12R $$ NCZ011>013-027>030-043-044-078>080-089-090>093-098-300200- COASTAL PLAIN CITY SKY/WX TMP DP RH WIND PRES REMARKS AHOSKIE CLOUDY 73 67 84 CALM 30.18R CLINTON CLEAR 81 75 83 E3 30.13R ELIZABETHTOWN CLEAR 79 68 69 S3 30.12R GOLDSBORO CLEAR 77 76 98 E8 30.12R GREENVILLE PTCLDY 77 70 78 E5 30.17R HAVELOCK CLOUDY 78 73 84 E5 30.15R KENANSVILLE PTCLDY 79 72 79 CALM 30.14R KINSTON MOCLDY 79 72 78 E6 30.15R NEW BERN PTCLDY 78 71 79 E6 30.15R RICHLANDS CLEAR 77 72 83 NE6 30.15R ROANOKE RAPIDS NOT AVBL ROCKY MOUNT CLOUDY 76 69 79 CALM 30.16R WASHINGTON PTCLDY 74 68 83 E3 30.17R WHITEVILLE CLEAR 78 71 79 CALM 30.12R $$ AMZ130-135-150-152-154-156-158-170-250-252-270-ANZ085-086-088-633-658-670-300200- MARINE OBSERVATIONS STATION/POSITION TIME TEMP WIND PRES WAVE SWELL AIR SEA DIR/SP/G HT/PER HT/PER (UTC) (F) (DEG/KT/KT) (MB) (FT/S) (FT/S) CHESAPEAKE LIGHT 0100 74 100/ 12/ 13 1022.6 BUOY 44014 0100 76 77 80/ 10/ 10 1021.4 3/ 8 3/ 8 DUCK 0100 76 78 80/ 14/ 16 1021.0 2E DUCK 0100 N/A 3/ 6 OREGON INLET 0100 76 79 50/ 10/ 15 1021.3 BUOY 44095 0100 77 N/A 3/ 8 20E OREGON INLET NOT AVBL HATTERAS CG 0100 80 82 100/ 8/ 11 1021.2 DIAMOND BUOY 0100 78 60/ 10/ 12 1020.3 4/ 8 3/ 8 CAPE LOOKOUT 0100 80 50/ 2/ 3 1020.5 BEAUFORT LAB 0100 79 82 30/ 3/ 5 1020.1 30 SE NEW RIVER 0100 82 83 170/ 8/ 10 1020.4 2/ 8 2/ 8 5 SE WRIGHTSVILL 0100 78 82 170/ 12/ 14 N/A BUOY 41002 0030 81 83 110/ 8/ 10 1021.0 3/ 8 3/ 8 BUOY 41004 0100 83 83 150/ 8/ 10 1018.7 3/ 8 3/ 8 $$

USA.gov is the U.S. government's official web portal to all federal, state and local government web resources and services.